x

8454000 - Providence, Ri (foxr1) Weather Station

11:30 - Fri 9th Dec 2016 All times are EST. -5 hours from GMT.

  • Wind
    13mph, 18mph gusts
  • Sea Temp 47°f
  • Ar Temp 27°f
  • Sea Pressure 1021.9mb
  • 8454000 - Providence, Ri
  • 8454000 - Providence, Ri

More Historic Weather Station data

Upgrade to MSW Pro to gain access to the past 30 days of data for over 8000 Wavebouys and Weather Stations around the globe.

Join Pro

Comparision Forecast

View Surf forecast
   
Sex 12/09 11:30 13 18 mph 1021.9mb 47f 27f
11:24 10 16 mph 1021.9mb 47f 27f
11:18 10 15 mph 1021.9mb 47f 27f
11:12 7 16 mph 1021.8mb 47f 27f
11:06 10 18 mph 1021.8mb 47f 27f
11:00 13 18 mph 1021.6mb 47f 27f
10:54 8 15 mph 1021.6mb 47f 27f
10:48 8 14 mph 1021.5mb 47f 27f
10:42 9 16 mph 1021.5mb 46f 27f
10:36 8 11 mph 1021.4mb 46f 27f
10:30 8 11 mph 1021.4mb 46f 27f
10:24 8 14 mph 1021.4mb 46f 27f
10:18 6 9 mph 1021.3mb 46f 27f
10:12 6 9 mph 1021.3mb 46f 27f
10:06 6 10 mph 1021.3mb 46f 28f
10:00 9 13 mph 1021.3mb 46f 28f
9:54 10 14 mph 1021.3mb 46f 28f
9:48 8 15 mph 1021.3mb 46f 28f
9:42 8 15 mph 1021.2mb 46f 28f
9:36 9 13 mph 1021.2mb 46f 28f
9:30 9 14 mph 1021.1mb 46f 28f
9:24 10 16 mph 1021.1mb 46f 28f
9:18 10 16 mph 1021mb 46f 28f
9:12 11 14 mph 1021.1mb 46f 28f
9:06 9 15 mph 1021mb 46f 28f
9:00 9 15 mph 1020.9mb 46f 28f
8:54 10 16 mph 1020.9mb 46f 28f
8:48 10 16 mph 1020.8mb 46f 28f
8:42 11 15 mph 1020.8mb 46f 28f
8:36 8 20 mph 1020.8mb 46f 28f
8:30 13 20 mph 1020.7mb 47f 29f
8:24 14 20 mph 1020.6mb 47f 29f
8:18 11 18 mph 1020.6mb 47f 29f
8:12 11 18 mph 1020.6mb 47f 29f
8:06 7 14 mph 1020.6mb 47f 29f
8:00 10 14 mph 1020.6mb 47f 29f
7:54 11 20 mph 1020.4mb 47f 29f
7:48 14 20 mph 1020.3mb 47f 29f
7:42 8 20 mph 1020.2mb 47f 29f
7:36 11 20 mph 1020.2mb 47f 29f
7:30 13 16 mph 1020.1mb 47f 30f
7:24 13 23 mph 1019.9mb 47f 30f
7:18 15 24 mph 1019.7mb 47f 30f
7:12 10 22 mph 1019.7mb 47f 30f
7:06 13 18 mph 1019.6mb 47f 30f
7:00 11 21 mph 1019.4mb 47f 30f
6:54 10 21 mph 1019.4mb 47f 30f
6:48 10 18 mph 1019.3mb 48f 31f
6:42 14 20 mph 1019.2mb 48f 31f
6:36 13 21 mph 1019.1mb 48f 31f
6:30 14 20 mph 1019.1mb 48f 31f
6:24 14 20 mph 1018.9mb 48f 31f
6:18 10 17 mph 1018.8mb 48f 31f
6:12 13 21 mph 1018.7mb 48f 31f
6:06 10 17 mph 1018.6mb 48f 31f
6:00 13 20 mph 1018.4mb 48f 32f
5:54 10 21 mph 1018.2mb 48f 32f
5:48 11 20 mph 1018mb 48f 32f
5:42 14 21 mph 1017.9mb 48f 32f
5:36 15 21 mph 1017.8mb 48f 32f
5:30 16 23 mph 1017.7mb 48f 32f
5:24 11 20 mph 1017.6mb 48f 32f
5:18 13 20 mph 1017.6mb 48f 33f
5:12 8 16 mph 1017.6mb 48f 33f
5:06 9 17 mph 1017.5mb 48f 33f
5:00 10 16 mph 1017.3mb 48f 33f
4:54 10 18 mph 1017.3mb 48f 33f
4:48 9 17 mph 1017.2mb 48f 33f
4:42 11 23 mph 1017.1mb 48f 33f
4:36 13 22 mph 1016.8mb 48f 34f
4:30 10 18 mph 1016.7mb 48f 34f
4:24 15 20 mph 1016.6mb 48f 34f
4:18 10 18 mph 1016.4mb 48f 34f
4:12 13 21 mph 1016.4mb 48f 34f
4:06 14 21 mph 1016.3mb 48f 34f
4:00 15 22 mph 1016mb 48f 34f
3:54 17 23 mph 1015.9mb 48f 35f
3:48 11 21 mph 1015.9mb 48f 35f
3:42 15 23 mph 1015.7mb 48f 35f
3:36 13 20 mph 1015.6mb 48f 35f
3:30 13 20 mph 1015.6mb 48f 35f
3:24 16 22 mph 1015.5mb 48f 35f
3:18 15 26 mph 1015.4mb 48f 35f
3:12 20 28 mph 1015.2mb 48f 35f
3:06 11 24 mph 1015.1mb 48f 36f
3:00 14 23 mph 1015.1mb 48f 35f
2:54 18 29 mph 1015mb 48f 36f
2:48 15 24 mph 1015mb 48f 36f
2:42 20 31 mph 1014.8mb 48f 36f
2:36 18 25 mph 1014.8mb 48f 36f
2:30 16 23 mph 1014.8mb 48f 36f
2:24 17 24 mph 1014.7mb 48f 36f
2:18 7 20 mph 1014.6mb 48f 37f
2:12 11 22 mph 1014.5mb 48f 36f
2:06 10 18 mph 1014.5mb 48f 37f
2:00 11 25 mph 1014.5mb 48f 37f
1:54 17 30 mph 1014.4mb 48f 36f
1:48 18 28 mph 1014.3mb 49f 37f
1:42 17 25 mph 1014.2mb 49f 36f
1:36 14 23 mph 1014.2mb 49f 37f
1:30 17 29 mph 1014.2mb 49f 36f
1:24 15 26 mph 1014.2mb 49f 36f
1:18 17 26 mph 1014.2mb 49f 36f
1:12 21 30 mph 1014.1mb 49f 36f
1:06 15 23 mph 1014.1mb 49f 36f
1:00 18 26 mph 1014.1mb 49f 37f
12:54 20 26 mph 1014mb 48f 36f
12:48 16 25 mph 1013.9mb 48f 37f
12:42 20 29 mph 1013.9mb 48f 36f
12:36 15 30 mph 1014mb 48f 37f
12:30 23 29 mph 1013.9mb 48f 36f
12:24 18 26 mph 1013.9mb 47f 36f
12:18 17 25 mph 1014mb 47f 37f
12:12 8 20 mph 1014mb 47f 37f
12:06 13 22 mph 1014.1mb 47f 37f
12:00 15 24 mph 1014.1mb 47f 37f
11:54 15 25 mph 1014.2mb 46f 37f
11:48 20 25 mph 1014.2mb 46f 36f
11:42 9 20 mph 1014.3mb 46f 37f
11:36 11 21 mph 1014.3mb 46f 37f
11:30 17 21 mph 1014.3mb 46f 36f
11:24 15 23 mph 1014.4mb 46f 36f
11:18 16 23 mph 1014.4mb 46f 36f
11:12 17 23 mph 1014.4mb 46f 36f
11:06 10 17 mph 1014.4mb 46f 36f
11:00 18 22 mph 1014.5mb 46f 35f
10:54 16 29 mph 1014.5mb 46f 35f
10:48 14 21 mph 1014.6mb 46f 35f
10:42 14 22 mph 1014.6mb 46f 35f
10:36 20 26 mph 1014.6mb 46f 35f
10:30 16 24 mph 1014.7mb 46f 35f
10:24 17 25 mph 1014.7mb 46f 35f
10:18 13 25 mph 1014.8mb 46f 35f
10:12 16 22 mph 1014.8mb 46f 35f
10:06 13 21 mph 1014.8mb 46f 35f
10:00 17 25 mph 1014.8mb 45f 35f
9:54 17 24 mph 1014.7mb 45f 35f
9:48 10 22 mph 1014.6mb 45f 35f
9:42 14 26 mph 1014.5mb 45f 35f
9:36 17 26 mph 1014.4mb 45f 35f
9:30 16 28 mph 1014.4mb 45f 35f
9:24 15 21 mph 1014.4mb 46f 35f
9:18 14 22 mph 1014.5mb 46f 35f
9:12 15 21 mph 1014.3mb 46f 34f
9:06 16 20 mph 1014.1mb 46f 34f
9:00 15 21 mph 1014mb 46f 35f
8:54 11 23 mph 1014mb 46f 35f
8:48 13 20 mph 1014mb 46f 34f
8:42 16 23 mph 1013.9mb 46f 34f
8:36 13 25 mph 1013.8mb 46f 34f
8:30 16 21 mph 1013.7mb 46f 34f
8:24 15 21 mph 1013.7mb 46f 34f
8:18 15 24 mph 1013.6mb 46f 34f
8:12 11 18 mph 1013.6mb 46f 33f
8:06 9 14 mph 1013.5mb 47f 33f
8:00 9 16 mph 1013.5mb 47f 33f
7:54 8 14 mph 1013.4mb 47f 33f
7:48 8 11 mph 1013.3mb 47f 32f
7:42 8 11 mph 1013.3mb 47f 32f
Qui 12/08 4:30 5 8 mph 1009.1mb 48f 41f
4:24 7 11 mph 1009mb 48f 41f
4:18 6 9 mph 1008.9mb 48f 41f
4:12 5 7 mph 1008.8mb 48f 41f
4:06 7 10 mph 1008.9mb 48f 41f
4:00 8 10 mph 1008.8mb 48f 42f
3:54 6 8 mph 1008.9mb 48f 42f
3:48 7 13 mph 1008.8mb 48f 42f
3:42 6 13 mph 1008.7mb 48f 42f
3:36 7 13 mph 1008.7mb 48f 42f
3:30 8 11 mph 1008.7mb 48f 42f
3:24 8 13 mph 1008.8mb 49f 42f
3:18 9 16 mph 1008.7mb 49f 42f
3:12 9 13 mph 1008.7mb 49f 42f
3:06 8 13 mph 1008.7mb 49f 42f
3:00 9 15 mph 1008.6mb 49f 42f
2:54 8 14 mph 1008.6mb 49f 42f
2:48 9 13 mph 1008.5mb 49f 42f
2:42 7 13 mph 1008.5mb 49f 42f
2:36 7 10 mph 1008.4mb 49f 42f
2:30 7
mph
1008.5mb - 42f
1:18 5 9 mph 1008.5mb 49f 43f
1:12 7 10 mph 1008.7mb 49f 43f
1:06 7 10 mph 1008.7mb 49f 43f
1:00 6 11 mph 1008.7mb 49f 42f
12:54 6 7 mph 1008.9mb 49f 43f
12:48 5 7 mph 1008.9mb 49f 42f
12:42 6 8 mph 1008.9mb 49f 42f
12:36 1 8 mph 1008.8mb 49f 42f
12:30 3 8 mph 1009mb 49f 42f
12:24 6 8 mph 1009.2mb 49f 42f
12:18 6 8 mph 1009.3mb 49f 42f
12:12 6 7 mph 1009.3mb 49f 42f
12:06 5 7 mph 1009.4mb 49f 42f
12:00 5 7 mph 1009.4mb 49f 42f
11:54 6 8 mph 1009.5mb 49f 42f
11:48 6 8 mph 1009.6mb 49f 42f
11:42 7 8 mph 1009.7mb 49f 42f
11:36 3 5 mph 1009.9mb 49f 42f
11:30 3 6 mph 1010mb 49f 42f
11:24 3 7 mph 1010.2mb 49f 42f
11:12 6 9 mph 1010.7mb 48f 42f
11:06 6 8 mph 1010.8mb 48f 42f
11:00 7 9 mph 1011mb 48f 42f
10:54 7 9 mph 1011.1mb 48f 42f
10:48 8 10 mph 1011.4mb 48f 42f
10:42 6 8 mph 1011.6mb 48f 42f
10:36 5 7 mph 1011.7mb 48f 42f
10:30 5 7 mph 1011.9mb 48f 42f
10:24 3 7 mph 1012.1mb 48f 41f
10:18 5 7 mph 1012.1mb 48f 41f
10:12 3 5 mph 1012.2mb 48f 41f
10:06 3 7 mph 1012.3mb 47f 41f
10:00 3 6 mph 1012.3mb 47f 41f
9:54 2 6 mph 1012.2mb 47f 41f
9:48 3 5 mph 1012.4mb 47f 40f
9:42 3 6 mph 1012.5mb 47f 40f
9:36 5 7 mph 1012.7mb 47f 40f
9:30 5 6 mph 1012.8mb 48f 40f
9:24 5 7 mph 1012.7mb 47f 40f
9:18 3 6 mph 1012.7mb 47f 39f
9:12 3 6 mph 1012.8mb 47f 39f
9:06 3 7 mph 1012.8mb 47f 39f
9:00 5 7 mph 1012.9mb 47f 39f
8:54 6 7 mph 1012.9mb 47f 38f
8:48 1 5 mph 1012.9mb 47f 38f
8:42 2 5 mph 1012.9mb 47f 38f
8:36 1 3 mph 1012.9mb 47f 38f
8:30 3 5 mph 1012.9mb 47f 38f
8:24 2 3 mph 1012.9mb 47f 38f
8:18  -  2 mph 1012.9mb 47f 38f
8:12 2 3 mph 1012.9mb 47f 37f
8:06 2 3 mph 1012.9mb 47f 38f
8:00 2 5 mph 1012.9mb 47f 38f
7:54 3
mph
1013mb 47f 38f
7:48 2 3 mph 1013mb 47f 37f
7:42 3
mph
1012.9mb 47f 37f
7:24 5
mph
1013mb 48f 37f
7:18 5 6 mph 1013.1mb 48f 37f
7:12 5 6 mph 1013.2mb 48f 37f
7:06 2 3 mph 1013.2mb 48f 37f
7:00 2 3 mph 1013.3mb 48f 37f
6:54 1 2 mph 1013.3mb 48f 37f
6:48 1 3 mph 1013.3mb 48f 37f
6:42 2
mph
1013.4mb 48f 37f
6:36  -  1 mph 1013.3mb 48f 37f
6:30 1 3 mph 1013.3mb 48f 37f
6:24 2 3 mph 1013.3mb 48f 37f
6:18 2 5 mph 1013.3mb 48f 37f
6:12 3 5 mph 1013.3mb 48f 37f
6:06 2 3 mph 1013.3mb 48f 37f
6:00  -  3 mph 1013.2mb 48f 37f
5:54 3
mph
1013.2mb 48f 37f
5:48 3
mph
1013.2mb 48f 37f
5:42 3
mph
1013.2mb 48f 37f
5:36 3
mph
1013.3mb 48f 37f
5:30 3 5 mph 1013.3mb 48f 37f
5:24 3 5 mph 1013.3mb 48f 37f
5:18 3
mph
1013.4mb 48f 37f
5:12 3
mph
1013.5mb 48f 37f
5:06 2
mph
1013.6mb 48f 37f
5:00  -  1 mph 1013.6mb 48f 37f
4:54  -  3 mph 1013.7mb 48f 38f
4:48 2 3 mph 1013.8mb 48f 38f
4:36 3 5 mph 1013.9mb 48f 38f
4:30 2 3 mph 1014mb 48f 38f
4:24 2 3 mph 1014mb 48f 38f
4:18 2 3 mph 1013.9mb 48f 38f
4:12 3 5 mph 1013.9mb 48f 38f
4:06 2
mph
1013.7mb 48f 38f
4:00 1 2 mph 1013.7mb 48f 38f
3:54 1 3 mph 1013.6mb 48f 38f
3:48 2 3 mph 1013.7mb 48f 38f
3:42 2 3 mph 1013.7mb 48f 38f
3:36 2 3 mph 1013.7mb 48f 38f
3:30 2
mph
1013.6mb 48f 38f
3:24 2 3 mph 1013.6mb 48f 38f
3:18 2 3 mph 1013.7mb 48f 38f
3:12 2
mph
1013.8mb 48f 38f
3:06 2
mph
1013.8mb 48f 38f
3:00 1 3 mph 1013.8mb 48f 38f
2:54 2
mph
1013.9mb 48f 38f
2:48 2 3 mph 1014.1mb 48f 38f
2:42  -  2 mph 1014mb 48f 38f
2:36 2
mph
1014.1mb 48f 38f
2:30 2 3 mph 1014.1mb 48f 39f
2:24 2 3 mph 1014.1mb 48f 39f
2:18 3 5 mph 1014.2mb 49f 39f
2:12 3 5 mph 1014.2mb 49f 39f
2:06 2 3 mph 1014.2mb 49f 39f
2:00 2 3 mph 1014.3mb 49f 39f
1:54 1 3 mph 1014.4mb 49f 39f
1:48 2 3 mph 1014.4mb 49f -
1:42 2 3 mph 1014.3mb 49f -
1:36 3 5 mph 1014.3mb 49f -
1:24 2 3 mph 1014.4mb 49f 39f
1:18 1 3 mph 1014.4mb 49f 39f
1:12 1 3 mph 1014.4mb 49f 39f
1:06 2 5 mph 1014.4mb 49f 39f
1:00 3 6 mph 1014.6mb 49f 39f
12:54 5 7 mph 1014.7mb 49f 39f
12:48 5 7 mph 1014.6mb 49f -
12:42 3 7 mph 1014.7mb 49f -
12:36 6 7 mph 1014.6mb 49f -
12:30 5 6 mph 1014.5mb 49f 39f
12:24 3 5 mph 1014.5mb 49f 39f
12:18 5 6 mph 1014.5mb 49f 39f
12:12 3 6 mph 1014.6mb 49f 39f
12:06 3 6 mph 1014.4mb 49f 39f
12:00 2 3 mph 1014.3mb 49f 40f
Qua 12/07 11:54 2 3 mph 1014.4mb 49f 40f
11:48 2 3 mph 1014.4mb 49f 40f
11:42 2 3 mph 1014.4mb 49f 40f
11:36 2 3 mph 1014.5mb 49f 40f
11:30 3 5 mph 1014.6mb 49f 40f
11:24 2 3 mph 1014.6mb 49f 40f
11:18 2 3 mph 1014.7mb 49f 40f
11:12 2 5 mph 1014.8mb 49f 40f
11:06 2 3 mph 1014.9mb 49f 40f
11:00 2 5 mph 1015mb 49f 41f
10:54 3 5 mph 1015mb 49f 41f
10:48 3 5 mph 1015mb 48f 41f
10:42 3 5 mph 1015.1mb 48f 41f
10:36 3 5 mph 1015mb 48f 41f
10:30 5 6 mph 1015.1mb 48f 41f
10:24 3 5 mph 1015.2mb 48f 41f
10:18 3 6 mph 1015.1mb 48f 41f
10:12 3 5 mph 1015.2mb 47f 41f
10:06 2 3 mph 1015.1mb 47f 41f
10:00 2 3 mph 1015mb 47f 41f
9:54 2 3 mph 1015mb 47f 41f
9:48 3 5 mph 1015mb 47f 42f
9:42 3 5 mph 1015.1mb 47f 42f
9:36 5 6 mph 1015.2mb 47f 42f
9:30 2 5 mph 1015.3mb 47f 42f
9:24 3 5 mph 1015.4mb 47f 42f
9:18 2 5 mph 1015.3mb 47f 42f
9:12 3 5 mph 1015.4mb 47f 42f
9:06 2 3 mph 1015.4mb 47f 42f
9:00 3 5 mph 1015.5mb 47f 42f
8:54 2 5 mph 1015.5mb 47f 42f
8:48 2 5 mph 1015.6mb 47f 42f
8:42 5 6 mph 1015.5mb 47f 42f
8:36 5 6 mph 1015.5mb 47f 42f
8:30 3 5 mph 1015.5mb 47f 42f
8:24 2 5 mph 1015.4mb 47f 43f
8:18 3 7 mph 1015.5mb 47f 43f
8:12 3 9 mph 1015.5mb 47f 43f
8:06 7 9 mph 1015.7mb 47f 43f
8:00 7 9 mph 1015.5mb 47f 43f
7:54 6 9 mph 1015.4mb 47f 43f
7:48 3 9 mph 1015.3mb 47f 43f
7:42 9 13 mph 1015.3mb 47f 43f
7:36 7 9 mph 1015.5mb 47f 43f
7:30 6 10 mph 1015.7mb 47f 43f
7:24 7 11 mph 1015.6mb 47f 43f
7:18 3 9 mph 1015.6mb 47f 43f
7:12 6 9 mph 1015.6mb 47f 43f
7:06 2 6 mph 1015.6mb 47f 43f
7:00 6 7 mph 1015.7mb 47f 43f
6:54 3 5 mph 1015.6mb 47f 43f
6:48 2 5 mph 1015.5mb 47f 43f
6:42 3 5 mph 1015.5mb 47f 43f
6:36 3 5 mph 1015.5mb 47f 43f
6:30 3 5 mph 1015.5mb 47f 43f
6:24 5
mph
1015.6mb 47f 43f
6:18 3 5 mph 1015.6mb 47f 43f
6:12 3 5 mph 1015.6mb 47f 43f
6:06 3
mph
1015.5mb 47f 43f
6:00 2 3 mph 1015.4mb 47f 43f
5:54 3
mph
1015.3mb 47f 43f
5:48 2 3 mph 1015.3mb 47f 43f
5:42 2 3 mph 1015.2mb 47f 43f
5:36 2
mph
1015.1mb 47f 43f
5:30 2 3 mph 1015mb 47f 43f
5:24 3 5 mph 1014.9mb 47f 43f
5:18 2 5 mph 1014.7mb 47f 43f
5:12 2 3 mph 1014.7mb 48f 43f
5:06 2 5 mph 1014.7mb 48f 43f
5:00 3
mph
1014.6mb 48f 43f
4:54 2 3 mph 1014.6mb 48f 43f
4:48 2 3 mph 1014.5mb 48f 43f
4:42 2 5 mph 1014.4mb 48f 43f
4:36 3 5 mph 1014.2mb 48f 43f
4:30 3
mph
1014.4mb 48f 43f
4:24 2 3 mph 1014.3mb 48f 43f
4:18 2 3 mph 1014.2mb 48f 43f
4:12 3 5 mph 1014.2mb 48f 43f
4:06 3 6 mph 1014.2mb 48f 43f
4:00 5 6 mph 1014.1mb 48f 43f
3:54 5
mph
1014mb 48f 44f
3:48 2 5 mph 1014mb 48f 44f
3:42 2 3 mph 1013.9mb 48f 44f
3:36  -  2 mph 1013.8mb 48f 44f
3:30  -  3 mph 1013.7mb 48f 43f
3:24 2 5 mph 1013.5mb 48f 43f
3:18 2 5 mph 1013.6mb 48f 43f
3:12 2 3 mph 1013.5mb 48f 43f
3:06 2 5 mph 1013.5mb 48f 43f
3:00 3 5 mph 1013.4mb 48f 43f
2:54 5 6 mph 1013.4mb 48f 43f
2:48 5 6 mph 1013.5mb 48f 43f
2:42 3 5 mph 1013.3mb 48f 43f
2:36 3 5 mph 1013.1mb 48f 43f
2:30 5 6 mph 1013mb 48f 43f
2:24 3 6 mph 1013mb 48f 43f
2:18 3 5 mph 1012.9mb 48f 43f
2:12 2 3 mph 1013mb 48f 43f
2:06 2 3 mph 1013mb 48f 43f
2:00 2 3 mph 1013.1mb 48f 43f
1:54  -  2 mph 1013.2mb 48f 43f
1:48 1 2 mph 1013.1mb 48f 42f
1:42  -  2 mph 1013.1mb 48f 42f
1:36 1 3 mph 1012.9mb 48f 42f
1:30 3 5 mph 1012.9mb 48f 42f
1:24 3 6 mph 1012.8mb 48f 42f
1:18 5 7 mph 1012.7mb 48f 42f
1:12 3 6 mph 1012.9mb 48f 42f
1:06 5 6 mph 1012.9mb 48f 42f
1:00 5 6 mph 1013mb 48f 42f
12:54 5
mph
1013.1mb 48f 42f
12:48 3 6 mph 1013.3mb 48f 42f
12:42 5 6 mph 1013.3mb 48f 42f
12:36 6
mph
1013.3mb 48f 42f
12:30 3 5 mph 1013.3mb 48f 42f
12:24 1 2 mph 1013.3mb 48f 42f
12:18 1 2 mph 1013.4mb 48f 42f
12:12 1 2 mph 1013.4mb 48f 42f
12:06  -  2 mph 1013.7mb 48f 41f
12:00  -  2 mph 1013.7mb 48f 41f
11:54 1 2 mph 1013.8mb 48f 41f
11:48  -  2 mph 1013.9mb 48f 41f
11:42 2 3 mph 1014mb 48f 41f
11:36 2 3 mph 1014mb 48f 41f
11:30 3 6 mph 1014mb 48f 41f
11:24 5 6 mph 1014.1mb 48f 40f
11:18 3 5 mph 1014.2mb 48f 40f
11:12 5 6 mph 1014.3mb 48f 40f
11:06 3 6 mph 1014.3mb 48f 40f
11:00 3 5 mph 1014.4mb 48f 40f
10:54 3 5 mph 1014.6mb 48f 40f
10:48 2 3 mph 1014.7mb 48f 39f
10:42 2 3 mph 1014.7mb 48f 40f
10:36 2 5 mph 1014.8mb 48f 39f
10:30 3 6 mph 1015mb 48f 39f
10:24 5 7 mph 1015.1mb 48f 39f
10:18 5 7 mph 1015mb 48f 39f
10:12 5 7 mph 1015.2mb 48f 39f
10:06 6 8 mph 1015.2mb 48f 38f
10:00 6 8 mph 1015.2mb 48f 38f
9:54 7 9 mph 1015mb 48f 38f
9:48 7 9 mph 1014.8mb 48f 38f
9:42 5 10 mph 1014.7mb 48f 38f
9:36 7 10 mph 1014.7mb 48f 38f
9:30 7 9 mph 1014.6mb 48f 38f
9:24 7 9 mph 1014.4mb 48f 38f
9:18 6 9 mph 1014.4mb 47f 38f
9:12 8 10 mph 1014.3mb 47f 38f
9:06 8 10 mph 1014.4mb 47f 38f
9:00 8 11 mph 1014.4mb 47f 38f
8:54 7 9 mph 1014.3mb 47f 38f
8:48 9 10 mph 1014.3mb 47f 38f
8:42 8 11 mph 1014.3mb 47f 38f
8:36 9 11 mph 1014.3mb 47f 38f
8:30 7 9 mph 1014.2mb 47f 38f
8:24 7 9 mph 1014.2mb 47f 38f
8:18 8 9 mph 1014.1mb 47f 38f
8:12 9 11 mph 1014.1mb 47f 38f
8:06 9 11 mph 1014.1mb 47f 38f
8:00 8 9 mph 1014mb 47f 38f
7:54 7 10 mph 1014.1mb 47f 38f
7:48 8 10 mph 1014.1mb 47f 38f
7:42 8 13 mph 1014mb 47f 38f
7:36 8 11 mph 1014.1mb 47f 38f
7:30 7 9 mph 1014.1mb 47f 38f
7:24 7 10 mph 1014mb 47f 38f
7:18 9 11 mph 1013.9mb 47f 38f
7:12 8 9 mph 1013.8mb 47f 38f
7:06 9 13 mph 1013.6mb 47f 38f
7:00 9 11 mph 1013.6mb 47f 38f
6:54 8 10 mph 1013.4mb 47f 38f
6:48 9 10 mph 1013.3mb 47f 38f
6:42 6 8 mph 1013.1mb 47f 38f
6:36 7 8 mph 1013mb 47f 38f
6:30 5 7 mph 1012.8mb 47f 38f
6:24 5 7 mph 1012.5mb 47f 38f
6:18 6 8 mph 1012.4mb 47f 38f
6:12 6 8 mph 1012.4mb 47f 38f
6:06 6 7 mph 1012.3mb 47f 38f
6:00 6 8 mph 1012.4mb 47f 38f
5:54 8 9 mph 1012.4mb 47f 38f
5:48 7 9 mph 1012.5mb 47f 38f
5:42 7 9 mph 1012.7mb 47f 38f
5:36 7 10 mph 1012.8mb 47f 38f
5:30 7 9 mph 1012.7mb 47f 38f
5:24 5 7 mph 1012.7mb 47f 38f
5:18 3 7 mph 1013mb 47f 38f
5:12 7 9 mph 1013mb 47f 38f
5:06 6 8 mph 1012.8mb 47f 38f
5:00 7 9 mph 1012.4mb 47f 38f
4:54 7 11 mph 1012mb 47f 38f
4:48 7 10 mph 1011.9mb 47f 38f
4:42 7 10 mph 1011.8mb 47f 38f
4:36 8 9 mph 1011.7mb 47f 38f
4:30 8 11 mph 1011.7mb 48f 37f
4:24 8 10 mph 1011.6mb 48f 37f
4:18 7 10 mph 1011.7mb 48f 37f
4:12 8 10 mph 1011.6mb 48f 37f
4:06 9 10 mph 1011.6mb 48f 37f
4:00 9 10 mph 1011.6mb 48f 37f
3:54 6 11 mph 1011.7mb 48f 37f
3:48 9 10 mph 1011.6mb 48f 37f
3:42 6 9 mph 1011.9mb 48f 37f
3:36 6 9 mph 1012mb 48f 37f
3:30 7 8 mph 1012mb 48f 37f
3:24 3 8 mph 1012.1mb 48f 37f
3:18 7 11 mph 1012mb 48f 37f
3:12 7 8 mph 1012mb 48f 37f
3:06 7 9 mph 1012.2mb 48f 37f
3:00 6 8 mph 1012.4mb 48f 37f
2:54 5 8 mph 1012.5mb 48f 38f
2:48 5 8 mph 1012.8mb 48f 38f
2:42 6 8 mph 1012.9mb 48f 38f
2:36 5 9 mph 1013mb 48f 38f
2:30 6 9 mph 1012.9mb 48f 38f
2:24 7 9 mph 1012.8mb 48f 38f
2:18 10 13 mph 1012.8mb 48f 38f
2:12 8 11 mph 1012.9mb 48f 38f
2:06 6 10 mph 1013mb 48f 38f
2:00 8 11 mph 1012.7mb 48f 38f
1:54 7 10 mph 1012.7mb 48f 38f
1:48 8 11 mph 1012.8mb 48f 38f
1:42 7 10 mph 1012.6mb 48f 39f
1:36 7 9 mph 1012.6mb 48f 38f
1:30 7 8 mph 1012.6mb 49f 38f
1:24 5 9 mph 1012.8mb 49f 39f
1:18 6 9 mph 1012.7mb 49f 39f
1:12 5 8 mph 1012.6mb 49f 39f
1:06 6 8 mph 1012.7mb 49f 39f
1:00 5 7 mph 1012.7mb 49f 39f
12:54 5 8 mph 1012.8mb 49f 39f
12:48 5 8 mph 1012.7mb 49f 39f
12:42 6 8 mph 1012.6mb 49f 39f
12:36 6 8 mph 1012.6mb 49f 39f
12:30 7 9 mph 1012.6mb 49f 39f
12:24 7 8 mph 1012.6mb 49f 39f
12:18 5 9 mph 1012.8mb 49f 39f
12:12 7 10 mph 1012.6mb 49f 39f
12:06 6 9 mph 1012.6mb 49f 39f
12:00 5 8 mph 1012.8mb 48f 39f
Ter 12/06 11:54 6 9 mph 1013mb 48f 39f
11:48 3 7 mph 1013.3mb 48f 39f
11:42 5 6 mph 1013.6mb 48f 40f
11:36 3 6 mph 1013.8mb 48f 39f
11:30 5 7 mph 1014mb 48f 39f
11:24 6 7 mph 1014mb 48f 39f
11:18 6 7 mph 1014.1mb 48f 39f
11:12 6 7 mph 1014.3mb 48f 39f
11:06 5 6 mph 1014.5mb 48f 39f
11:00 5 6 mph 1014.6mb 48f 39f
10:54 5 6 mph 1014.7mb 48f 39f
10:48 5 7 mph 1014.9mb 48f 39f
10:42 6 7 mph 1014.9mb 48f 39f
10:36 6 7 mph 1014.8mb 48f 39f
10:30 6 7 mph 1014.8mb 48f 39f
10:24 7 8 mph 1014.8mb 48f 39f
10:18 6 8 mph 1014.8mb 48f 39f
10:12 6 8 mph 1014.8mb 48f 39f
10:06 6 9 mph 1014.8mb 48f 40f
10:00 7 10 mph 1014.8mb 48f 40f
9:54 8 9 mph 1014.8mb 48f 40f
9:48 7 9 mph 1014.8mb 48f 40f
9:18 6 8 mph 1015.3mb 47f 40f
9:12 6 7 mph 1015.4mb 47f 40f
9:06 6 7 mph 1015.5mb 47f 40f
9:00 5 6 mph 1015.6mb 47f 40f
8:54 3 5 mph 1015.8mb 47f 40f
8:48 3
mph
1015.9mb 47f 40f
7:54  -  3 mph 1015.6mb 47f 40f
7:48 1 3 mph 1015.6mb 47f 40f
7:30 2 5 mph 1015.4mb 47f 40f
7:24 2 5 mph 1015.4mb 47f 40f
7:18 2 5 mph 1015.4mb 47f 40f
7:12 2 5 mph 1015.4mb 47f 40f
7:06 5 6 mph 1015.4mb 47f 40f
7:00 3 6 mph 1015.5mb 47f 40f
6:54 5 7 mph 1015.6mb 47f 40f
6:48 5 7 mph 1015.5mb 47f 40f
6:42 6 7 mph 1015.6mb 47f 40f
6:36 3 6 mph 1015.6mb 47f 40f
6:30 3 6 mph 1015.6mb 47f 40f
6:24 5 8 mph 1015.6mb 47f 40f
6:18 5 9 mph 1015.5mb 47f 40f
6:12 5 8 mph 1015.5mb 47f 40f
6:06 5 9 mph 1015.6mb 47f 41f
6:00 5 9 mph 1015.6mb 47f 41f
5:54 6 10 mph 1015.7mb 47f 41f
5:48 6 9 mph 1015.8mb 47f 41f
5:42 7 11 mph 1015.7mb 47f 41f
5:36 9 13 mph 1015.6mb 47f 41f
5:30 7 11 mph 1015.5mb 47f 42f
5:24 5 8 mph 1015.4mb 47f 42f
5:18 5 8 mph 1015.4mb 47f 42f
5:12 5 8 mph 1015.3mb 47f 42f
5:06 7 9 mph 1015.3mb 47f 42f
5:00 6 9 mph 1015.3mb 47f 42f
4:54 5 8 mph 1015.3mb 47f 42f
4:48 7 10 mph 1015.2mb 47f 42f
4:42 6 7 mph 1015.1mb 47f 42f
4:36 5 7 mph 1015.1mb 47f 43f
4:30 3 7 mph 1015.2mb 47f 43f
4:24 5 8 mph 1015.1mb 47f 43f
4:18 6 8 mph 1015.1mb 47f 43f
4:12 6 7 mph 1015.1mb 47f 43f
4:06 5 8 mph 1015.2mb 47f 43f
4:00 8 10 mph 1015.2mb 47f 43f
3:54 6 8 mph 1015.3mb 47f 43f
3:48 7 9 mph 1015.5mb 47f 43f
3:42 6 9 mph 1015.5mb 47f 43f
3:36 5 9 mph 1015.7mb 47f 43f
3:30 5 8 mph 1016mb 48f 44f
3:24 6 8 mph 1016.2mb 48f 44f
3:18 5 7 mph 1016.2mb 48f 44f
3:12 7 8 mph 1016.2mb 48f 44f
3:06 7 8 mph 1016.4mb 48f 44f
3:00 6 7 mph 1016.5mb 48f 44f
2:54 6 8 mph 1016.6mb 48f 44f
2:48 7 9 mph 1016.8mb 48f 44f
2:42 7 9 mph 1016.8mb 48f 44f
2:36 6 9 mph 1016.8mb 48f 44f
2:30 8 9 mph 1016.7mb 48f 44f
2:24 7 9 mph 1016.6mb 48f 44f
2:18 6 8 mph 1016.7mb 48f 44f
2:12 7 9 mph 1016.7mb 48f 44f
2:06 6 7 mph 1016.7mb 48f 44f
2:00 6 8 mph 1016.8mb 48f 44f
1:54 7 9 mph 1017mb 48f 44f
1:48 7 9 mph 1017.2mb 48f 44f
1:30 7 8 mph 1017.2mb 48f 44f
1:24 3 7 mph 1017.3mb 48f 43f
1:18 2 6 mph 1017.3mb 48f 43f
1:12 3 7 mph 1017.3mb 48f 44f
1:06 3 8 mph 1017.5mb 48f 44f
1:00 7 9 mph 1017.3mb 48f 44f
12:54 7 9 mph 1017.3mb 48f 43f
12:48 6 7 mph 1017.4mb 48f 43f
12:30 8 14 mph 1017.5mb 48f 43f
12:24 9 13 mph 1017.6mb 48f 43f
12:18 10 13 mph 1017.7mb 48f 43f
12:12 10 15 mph 1017.6mb 48f 43f
12:06 13 16 mph 1017.5mb 48f 43f
12:00 10 15 mph 1017.7mb 48f 43f
11:54 10 14 mph 1017.8mb 48f 43f
11:48 7 11 mph 1018mb 48f 43f
11:42 9 14 mph 1018mb 48f 43f
11:36 11 16 mph 1018.1mb 49f 43f
11:30 8 15 mph 1018.2mb 49f 43f
11:24 10 16 mph 1018.3mb 49f 43f
11:18 14 20 mph 1018.5mb 49f 43f
11:12 15 18 mph 1018.6mb 48f 43f
11:06 10 14 mph 1018.8mb 48f 43f
11:00 10 15 mph 1018.8mb 48f 43f
10:54 9 14 mph 1018.8mb 48f 43f
10:48 9 18 mph 1018.9mb 48f 43f
10:42 11 16 mph 1019mb 48f 43f
10:36 11 15 mph 1019.1mb 48f 43f
10:30 9 11 mph 1019.3mb 48f 42f
10:24 8 11 mph 1019.5mb 48f 42f
10:18 2 16 mph 1019.6mb 48f 42f
10:12 2 15 mph 1019.6mb 48f 42f
10:06 9 13 mph 1019.7mb 48f 42f
10:00 8 9 mph 1019.8mb 48f 42f
9:54 5 7 mph 1019.9mb 48f 42f
9:48 2 6 mph 1020mb 48f 42f
9:42 3 6 mph 1019.9mb 48f 41f
9:36 2 5 mph 1019.8mb 48f 40f
9:30 3 5 mph 1019.9mb 48f 40f
9:24 2 7 mph 1019.9mb 48f 40f
9:18 5 7 mph 1019.8mb 48f 39f
9:12 1 5 mph 1019.7mb 48f 39f
9:06 3 6 mph 1019.6mb 48f 38f
9:00 5 7 mph 1019.4mb 48f 38f
8:54  -  2 mph 1019.3mb 48f 38f
8:48  -  2 mph 1019.3mb 48f 38f
8:42 1 2 mph 1019.2mb 48f 37f
8:36 1 3 mph 1019.2mb 48f 37f
8:30 2
mph
1019.1mb 48f 37f
8:24 2 3 mph 1019.1mb 48f 37f
8:18 2
mph
1019.2mb 48f 37f
8:12 2 3 mph 1019.2mb 48f 37f
8:06 2 3 mph 1019.2mb 48f 36f
8:00 3 5 mph 1019.2mb 48f 36f
7:54 3 5 mph 1019.2mb 48f 36f
7:48 3
mph
1019.2mb 48f 36f
7:42 3 5 mph 1019.3mb 48f 36f
7:36 2 5 mph 1019.2mb 48f 37f
7:30 1 3 mph 1019.3mb 48f 36f
7:24  -  1 mph 1019.3mb 48f 37f
7:18  -  1 mph 1019.3mb 48f 36f
7:12  -  1 mph 1019.3mb 47f 35f
7:06  -  1 mph 1019.2mb 47f 35f
7:00 1 2 mph 1019.2mb 47f 35f
6:54 1 3 mph 1019.1mb 47f 36f
6:48 3
mph
1019mb 47f 36f
6:42 2 5 mph 1019.2mb 46f 35f
6:36 2 5 mph 1019.1mb 46f 36f
6:30 3 5 mph 1019mb 46f 36f
6:24 3 5 mph 1019mb 46f 36f
6:18 3 5 mph 1018.9mb 46f 36f
6:12 5 6 mph 1018.8mb 46f 36f
6:06 5 6 mph 1018.9mb 46f 36f
6:00 3 5 mph 1018.9mb 47f 36f
5:54 3 6 mph 1018.9mb 47f 36f
5:48 3 7 mph 1018.9mb 47f 36f
5:42 7 8 mph 1018.9mb 47f 36f
5:36 6 8 mph 1018.8mb 47f 36f
5:30 6 7 mph 1018.7mb 47f 37f
5:24 5 6 mph 1018.6mb 47f 37f
5:18 2 6 mph 1018.7mb 47f 37f